Regional Weather Roundup
Issued by NWS

Home | Current Version | Previous Version | Text Only | Print | Product List | Glossary On
Versions: 1 2 3 4 5 6 7 8 9 10 11 12 13 14 15 16 17 18 19 20 21 22 23 24 25 26 27 28 29 30 31 32 33 34 35 36 37 38 39 40 41 42 43 44 45 46 47 48 49 50
904
ASUS44 KLIX 241801
RWRLA
LOUISIANA WEATHER ROUNDUP
NATIONAL WEATHER SERVICE NEW ORLEANS LA
100 PM CDT THU APR 24 2014

NOTE: "FAIR" INDICATES FEW OR NO CLOUDS BELOW 12,000 FEET WITH NO
      SIGNIFICANT WEATHER AND/OR OBSTRUCTIONS TO VISIBILITY.
      SKY/WX - SKY CONDITION AND SIGNIFICANT WEATHER.
      TMP - AIR TEMPERATURE.    DP   - DEWPOINT TEMPERATURE.
      RH  - RELATIVE HUMIDITY.  PRES - PRESSURE.
      HX  - HEAT INDEX.         WCI  - WIND CHILL INDEX.

*  THESE STATIONS ARE NOT NWS OR FAA STATIONS AND ARE NOT UNDER
   NWS QUALITY CONTROL.

LAZ040-048-061>063-065-066-069-241900-
SOUTHEAST LOUISIANA

CITY           SKY/WX    TMP DP  RH WIND       PRES   REMARKS
N.O. AUDUBON     N/A     82  65  55 MISG        N/A
6HR MIN TEMP:  67; 6HR MAX TEMP:  82;

N.O. INTL ARPT PTSUNNY   81  66  60 S12       29.95F
6HR MIN TEMP:  64; 6HR MAX TEMP:  81;

N.O. LAKEFRONT CLOUDY    77  67  71 N9        29.96F
6HR MIN TEMP:  66; 6HR MAX TEMP:  80;

N.O. DOWNTOWN* FAIR      82  61  47 S9G16     29.96F
6HR MIN TEMP:  70; 6HR MAX TEMP:  82;

SLIDELL        FAIR      79  62  56 S10       29.96F
6HR MIN TEMP:  57; 6HR MAX TEMP:  80;

BATON ROUGE    PTSUNNY   83  64  52 S12G17    29.93F
6HR MIN TEMP:  63; 6HR MAX TEMP:  83;

BOOTHVILLE     FAIR      76  65  68 S8        29.98F
6HR MIN TEMP:  66; 6HR MAX TEMP:  76;

BELLE CHASSE   PTSUNNY   80  62  54 S9        29.96F
6HR MIN TEMP:  59; 6HR MAX TEMP:  81;

BOGALUSA*        N/A     82  60  48 S12G17    29.96F
6HR MIN TEMP:  59; 6HR MAX TEMP:  82;

GALLIANO*      FAIR      81  65  59 S10       29.97F
6HR MIN TEMP:  58; 6HR MAX TEMP:  81;

NEW ROADS*     NOT AVBL
GONZALES*      FAIR      80  65  60 SE8       29.93F
6HR MIN TEMP:  61; 6HR MAX TEMP:  80;

HAMMOND*       NOT AVBL
HOUMA*         PTSUNNY   81  64  57 SE15      29.97F
PORT FOURCHON* MOCLDY    75  66  73 S10       29.99F

$$

LAZ041-044-053-054-241900-
SOUTHWEST LOUISIANA

CITY           SKY/WX    TMP DP  RH WIND       PRES   REMARKS
LAKE CHARLES   FAIR      78  64  61 S10G21    29.91F
6HR MIN TEMP:  67; 6HR MAX TEMP:  79;

LAFAYETTE      PTSUNNY   79  66  64 S13G23    29.93F
PATTERSON      PTSUNNY   79  66  65 S13       29.98
6HR MIN TEMP:  61; 6HR MAX TEMP:  81;

SALT POINT       N/A     79  70  74 VRB7      29.95S
6HR MIN TEMP:  68; 6HR MAX TEMP:  79;

NEW IBERIA     PTSUNNY   80  65  59 S17       29.94S
6HR MIN TEMP:  61; 6HR MAX TEMP:  81; 6HR PCP: TRACE;

CHENAULT AIRPK NOT AVBL

$$

LAZ027-028-241900-
CENTRAL LOUISIANA

CITY           SKY/WX    TMP DP  RH WIND       PRES   REMARKS
FORT POLK      FAIR      80  64  58 VRB7      29.89F
6HR MIN TEMP:  65; 6HR MAX TEMP:  80;

ALEXANDRIA INT FAIR      82  64  54 S12G24    29.88F
6HR MIN TEMP:  66; 6HR MAX TEMP:  83;

ALEXANDRIA     CLOUDY    81  64  56 S12G22    29.90S
6HR MIN TEMP:  65; 6HR MAX TEMP:  82;


$$

LAZ001-002-241900-
NORTHWEST LOUISIANA

CITY           SKY/WX    TMP DP  RH WIND       PRES   REMARKS
SHREVEPORT     PTSUNNY   79  64  60 S18G24    29.82F
6HR MIN TEMP:  64; 6HR MAX TEMP:  80;

BARKSDALE AFB  NOT AVBL
DTN SHREVEPORT CLOUDY    75  64  68 S13G25    29.83F
6HR MIN TEMP:  65; 6HR MAX TEMP:  77;


$$

LAZ014-016-241900-
NORTHEAST LOUISIANA

CITY           SKY/WX    TMP DP  RH WIND       PRES   REMARKS
MONROE         CLOUDY    77  63  61 S10       29.89F
6HR MIN TEMP:  54; 6HR MAX TEMP:  77;

TALLULAH       FAIR      80  58  46 SW9       29.90F
6HR MIN TEMP:  57; 6HR MAX TEMP:  81;


$$




USA.gov is the U.S. government's official web portal to all federal, state and local government web resources and services.